SCP
0 -0 0 0 0 0 0 0 0 0 0 0 0 0 0 0 0 0 0 0 0 1 2 3 4 4 4 4 3 1 1 0 0 0 0 0 0 0 0 0 0 0 0 0
0 0 0 0 0 0 0 0 0 0 0 0 0 0 0 0 0 0 0 0 0 1 3 5 4 4 4 4 2 1 0 0 0 0 0 0 0 0 0 0 0 0 0 0
0 0 0 0 0 0 0 0 0 0 0 0 0 0 0 0 0 0 0 0 0 1 2 4 4 4 4 3 1 1 0 0 0 0 0 0 0 0 0 0 0 0 0 0
0 0 0 0 0 0 0 0 0 0 0 0 0 0 0 0 0 0 0 0 0 0 2 3 4 4 4 2 1 1 0 0 0 0 0 0 0 0 0 0 0 0 0 0
0 0 0 0 0 0 0 0 0 0 0 0 0 0 0 0 0 0 0 0 0 0 0 2 5 5 4 3 2 1 1 0 0 0 0 0 0 0 0 0 0 0 0 0
0 0 0 0 0 0 0 0 0 0 0 0 0 1 1 0 1 1 1 1 0 0 1 3 4 5 4 2 1 0 0 0 0 0 0 0 0 0 0 0 0 0 0 0
0 0 0 0 0 0 0 0 1 1 1 1 1 1 1 1 1 0 1 1 0 0 0 2 4 3 2 1 1 0 0 0 0 0 0 0 0 0 0 0 0 0 0 0
0 0 1 1 0 0 1 1 1 1 1 1 1 1 1 2 2 2 2 1 1 1 1 3 3 2 2 1 1 1 0 0 0 0 0 0 0 0 0 0 0 0 0 0
1 1 1 1 2 2 1 1 1 0 0 0 0 0 0 0 0 0 0 0 1 2 2 3 2 2 2 1 2 1 0 0 0 1 0 0 0 0 0 0 0 0 0 0
1 2 2 0 1 1 1 1 0 0 0 0 0 0 0 0 0 0 0 0 0 0 1 2 3 2 3 2 0 0 0 0 0 0 0 0 0 0 0 0 0 0 0 0
2 2 1 1 0 0 0 0 0 0 0 0 0 0 0 0 0 0 0 0 0 0 0 0 2 1 0 0 0 0 0 0 0 0 0 0 0 -0 0 0 0 0 0 0
0 0 1 0 0 0 0 0 0 0 0 0 0 0 0 0 0 0 0 0 0 0 0 0 1 0 0 0 0 0 0 0 0 0 0 0 0 0 0 0 0 0 0 0
0 0 0 0 0 0 0 0 0 0 0 0 0 0 0 0 0 0 0 0 0 0 0 0 0 0 0 0 0 0 0 0 0 0 0 0 0 0 0 0 0 0 0 0
0 0 0 0 0 0 0 0 0 0 0 0 0 0 0 0 0 0 0 0 0 0 0 0 0 0 0 0 0 0 0 0 0 0 0 0 0 0 0 0 0 0 0 0
0 0 0 0 0 0 0 0 0 0 0 0 0 0 0 0 0 0 0 0 0 0 0 0 0 0 0 0 0 0 0 0 0 0 0 0 0 0 0 0 0 0 0 0
0 0 0 0 0 0 0 0 0 0 0 0 0 0 0 0 0 0 0 0 0 0 0 0 0 0 0 0 0 0 0 0 0 0 0 0 0 0 0 0 0 -0 0 0
0 0 0 0 0 0 0 0 0 0 0 0 0 0 0 0 0 0 0 0 0 0 0 0 0 0 0 0 0 0 0 0 0 0 0 0 0 0 0 0 0 0 0 0
0 0 0 0 0 0 0 0 0 0 0 0 0 0 0 0 0 0 0 0 0 0 0 0 0 0 0 0 0 0 0 0 -0 0 0 0 0 0 0 0 0 -0 0 0
0 0 0 0 0 0 0 0 0 0 0 0 0 0 0 0 0 0 0 0 0 0 0 0 0 0 0 0 0 0 0 0 0 0 0 0 0 0 0 0 0 0 0 0
0 0 0 0 0 0 0 0 0 0 0 0 0 0 0 0 0 0 0 0 0 0 0 0 0 0 0 0 0 0 0 0 0 0 0 0 0 0 0 0 0 0 0 0
0 0 0 0 0 0 0 0 0 0 0 0 0 0 0 0 0 0 0 0 0 0 0 0 0 0 0 0 0 0 0 0 0 0 0 0 0 0 0 0 0 0 0 0
0 0 0 0 0 0 0 0 0 0 0 0 0 0 0 0 0 0 0 0 0 0 0 0 0 0 0 0 0 0 0 0 0 0 0 0 0 0 0 0 0 0 0 0
0 0 0 0 0 0 0 0 0 0 0 0 0 0 0 0 0 0 0 0 0 0 0 0 0 0 0 -0 -0 -0 -0 0 -0 0 0 0 0 0 0 0 0 0 0 0
0 0 0 0 0 0 0 -0 0 0 0 0 0 0 0 0 0 0 0 0 0 0 0 0 -0 -0 -0 -0 -0 -0 -0 0 0 0 0 0 0 0 0 0 0 0 0 0
0 0 0 -0 -0 0 -0 -0 -0 -0 -0 0 0 0 0 0 0 0 0 0 0 0 0 0 0 0 0 0 0 0 0 0 0 0 0 0 0 0 0 0 0 0 0 0
0 0 0 -0 -0 -0 0 0 0 -0 -0 -0 -0 0 0 0 -0 0 0 0 0 0 0 0 0 0 0 0 0 0 0 0 0 0 0 0 0 0 0 0 0 0 0 0
-0 -0 -0 -0 -0 -0 -0 0 0 0 -0 -0 -0 -0 -0 -0 -0 -0 -0 -0 -0 -0 -0 0 0 0 0 0 0 0 0 0 0 0 0 0 0 0 0 0 0 0 0 0
Wind_Speed_500mb
21 25 20 29 31 27 18 15 18 24 27 24 14 21 46 49 38 28 22 14 5 2 23 61 72 76 75 67 62 57 51 41 34 31 25 22 25 24 24 20 18 25 29 28
14 32 27 30 34 36 38 24 11 14 12 29 51 47 51 46 36 23 13 11 3 6 17 45 59 62 62 61 57 50 44 35 28 28 21 21 22 25 20 15 21 24 23 26
17 18 15 18 16 18 21 23 18 16 14 38 28 28 42 40 32 29 22 14 9 2 15 27 44 51 57 59 53 47 43 31 30 28 20 22 21 22 17 20 24 23 19 27
10 9 16 16 13 16 23 29 17 31 27 29 39 55 47 33 27 19 16 11 4 9 10 25 40 56 59 60 57 51 44 35 31 27 24 21 21 21 21 21 23 18 22 30
11 11 7 16 23 9 12 4 46 29 30 52 66 62 39 35 31 32 23 17 7 5 13 17 44 56 59 59 54 49 41 34 32 29 24 24 26 24 21 17 16 13 18 25
7 11 26 16 8 30 10 3 29 56 34 37 52 11 7 28 24 19 10 1 7 9 18 24 37 55 58 54 51 49 39 33 32 29 26 29 26 28 20 18 11 13 19 20
6 8 8 9 14 16 17 13 44 60 51 47 12 31 38 29 23 16 13 6 11 14 17 25 35 48 54 55 55 44 36 30 29 30 28 27 25 24 23 22 20 21 15 15
4 6 5 29 20 13 16 51 63 68 70 72 63 51 43 33 27 23 11 1 4 16 20 28 35 43 48 50 49 45 35 31 33 28 22 18 23 30 29 28 25 14 11 18
8 3 4 57 47 47 65 64 59 65 56 61 54 43 34 27 19 14 10 7 5 8 13 31 39 45 46 53 58 41 35 35 23 14 17 18 29 38 35 23 28 14 17 21
18 3 15 45 46 49 58 61 52 50 49 48 46 36 29 19 10 2 4 9 16 18 18 28 34 46 45 31 29 24 42 39 27 12 7 35 41 34 32 37 28 26 16 18
20 16 36 47 52 60 60 58 52 47 42 35 28 22 14 10 6 2 10 19 25 30 32 26 23 21 28 38 38 32 25 43 37 23 36 61 64 53 42 30 28 14 15 10
4 19 32 33 49 48 51 49 44 39 30 22 16 10 2 4 5 8 10 19 23 21 25 30 35 28 16 34 38 38 34 36 47 41 53 47 37 46 46 39 20 14 7 9
23 49 54 50 39 38 42 33 25 22 17 10 2 5 8 8 10 12 15 11 14 20 27 25 35 35 28 19 28 33 33 34 42 42 30 23 32 40 42 38 21 9 3 11
34 45 42 33 23 21 18 12 13 9 1 5 7 11 16 19 19 17 18 17 15 24 27 27 27 24 22 17 14 25 30 34 32 32 26 31 21 21 28 26 16 19 8 5
26 27 31 22 16 14 12 4 6 10 7 10 13 16 17 19 21 22 21 18 15 22 27 16 16 18 21 19 21 14 18 24 21 25 24 27 5 11 16 11 15 12 12 6
29 27 18 12 8 8 3 5 11 14 14 3 7 12 15 16 21 19 16 8 17 23 21 18 24 23 25 22 22 23 22 18 20 14 24 16 16 20 13 19 15 15 11 6
19 13 8 7 7 8 3 8 13 16 19 22 18 19 21 17 9 12 6 11 19 17 18 21 19 21 26 23 18 29 24 18 14 23 8 12 22 12 19 26 22 27 17 18
7 7 7 8 10 11 13 11 11 13 14 8 12 17 15 15 11 6 10 9 9 12 20 15 17 18 13 9 12 13 21 9 16 18 20 13 4 8 15 20 31 20 17 21
4 4 7 6 5 12 16 19 16 13 12 11 13 11 14 14 16 18 15 14 15 17 14 15 16 11 9 6 3 6 13 14 11 16 15 12 10 16 17 29 21 19 22 20
9 6 5 12 11 8 8 10 9 11 12 16 22 26 23 18 16 17 16 18 9 10 8 10 12 17 6 9 11 7 10 8 12 20 19 15 14 30 28 22 25 36 27 14
12 5 8 9 4 4 11 14 16 19 20 15 16 12 11 20 16 11 15 7 3 2 8 4 6 3 6 5 4 9 14 14 15 14 12 18 22 28 11 29 27 24 22 20
0 5 7 3 7 10 16 19 15 10 8 8 6 6 9 14 17 17 13 6 4 14 16 10 5 7 17 21 21 34 40 35 36 34 27 23 26 25 21 21 20 20 18 16
12 8 3 3 6 9 16 14 8 6 5 3 11 12 13 16 13 13 8 2 7 12 13 12 24 31 30 28 26 23 16 18 24 12 13 13 20 26 24 22 22 23 16 13
9 5 4 3 14 17 27 26 16 8 2 6 11 20 18 13 13 6 5 1 17 28 38 35 27 15 8 6 12 18 16 12 14 17 18 23 19 18 20 17 17 16 13 11
14 23 28 21 17 13 19 29 35 24 16 12 16 19 16 6 4 10 16 26 35 38 33 27 20 22 19 17 15 16 15 11 10 18 13 8 8 14 19 15 20 19 14 10
22 12 13 12 10 8 9 7 11 21 28 30 24 13 10 11 10 21 27 28 29 29 26 18 17 13 9 12 11 12 14 20 17 15 18 21 17 13 13 19 19 16 11 7
23 14 14 10 8 8 6 6 11 7 10 15 18 20 21 22 22 21 22 22 22 16 7 15 15 9 13 14 6 3 17 19 17 16 15 15 15 15 17 16 9 6 4 2
Wind_Direction_500mb
232 246 251 186 195 209 216 205 178 235 174 195 163 157 153 149 134 125 146 162 194 53 199 207 198 200 203 206 206 213 213 220 233 236 250 276 293 302 302 309 301 317 318 324
233 241 243 251 227 202 215 224 226 209 213 175 175 139 123 121 120 124 119 118 159 277 194 198 197 201 205 207 207 210 216 220 233 240 252 274 290 291 297 295 303 306 318 337
216 235 254 270 233 231 207 206 190 208 175 123 113 117 128 131 136 140 141 138 153 323 240 210 214 212 207 204 204 209 216 223 230 237 252 271 276 277 274 284 291 302 319 336
176 174 238 246 267 276 208 194 117 111 123 126 124 114 114 117 117 123 139 153 176 277 312 239 238 227 219 215 215 219 223 235 232 237 251 259 267 262 267 280 299 312 330 341
143 180 226 257 265 289 175 161 129 120 117 121 108 99 77 108 126 127 140 160 193 279 282 264 234 226 219 215 217 226 230 242 237 237 246 257 261 258 275 292 316 313 335 341
137 168 208 225 249 207 98 141 152 140 141 138 130 106 190 119 122 127 124 179 279 261 274 256 230 228 219 217 223 229 230 239 233 236 250 260 258 260 266 295 292 325 339 332
283 189 248 200 138 116 120 205 89 106 127 116 92 134 129 123 119 119 98 353 319 256 267 258 232 224 221 223 226 225 229 238 231 243 261 267 268 278 286 309 318 324 329 312
288 56 160 347 60 120 159 93 97 100 110 110 115 116 112 111 107 103 119 163 350 283 254 252 245 233 225 225 222 224 233 220 222 242 264 292 271 276 276 287 293 296 306 303
159 107 119 63 50 106 113 103 100 104 108 112 109 107 108 106 120 116 127 213 329 359 283 261 250 246 238 254 224 215 203 205 209 227 257 283 289 271 268 266 288 259 267 312
98 345 128 144 140 127 108 107 104 99 102 101 98 100 98 93 94 127 305 295 316 326 342 12 252 244 219 248 232 179 194 190 184 180 281 303 284 265 268 275 257 236 296 317
84 93 92 97 112 113 108 106 101 96 93 89 95 89 96 98 64 345 289 291 295 303 311 333 354 291 251 215 240 206 209 238 199 204 299 280 274 263 262 267 221 279 299 330
101 305 114 103 99 102 96 97 102 104 102 99 109 110 125 229 276 289 283 295 314 333 329 315 326 330 294 257 241 231 232 217 223 237 277 268 252 261 257 239 233 273 301 339
107 73 102 106 111 103 100 98 102 109 112 129 157 286 273 292 286 307 308 296 305 315 316 325 317 314 307 291 256 254 245 258 277 259 250 251 258 251 243 216 202 242 165 9
87 96 79 75 91 108 108 105 120 116 44 293 284 287 289 287 288 288 285 274 289 310 323 320 311 292 299 301 257 236 246 249 245 261 253 270 266 255 218 209 190 152 123 353
107 111 111 109 107 96 99 88 273 289 300 316 318 309 298 284 274 274 270 266 312 329 322 301 302 298 287 283 274 261 233 225 240 242 248 256 224 171 186 182 149 198 212 309
118 110 104 119 146 133 110 301 299 296 299 325 321 324 316 312 283 267 230 265 328 316 290 299 307 296 275 280 264 249 255 244 248 217 238 223 209 208 202 209 209 182 159 124
105 116 125 123 52 89 32 324 332 326 316 301 315 315 302 302 323 188 288 331 329 288 303 297 280 278 282 288 284 274 253 243 244 249 239 245 230 220 198 195 195 161 149 141
94 90 59 38 20 4 354 331 318 328 342 304 296 283 301 295 312 299 309 314 283 281 296 282 288 301 308 329 346 338 193 251 211 218 222 201 173 221 233 185 170 154 144 143
50 36 13 322 11 5 349 347 325 316 343 311 259 254 289 288 281 275 263 256 270 266 269 281 299 289 285 267 101 133 162 200 206 206 189 191 191 196 188 148 164 182 174 144
327 68 46 15 23 19 349 340 308 303 286 289 289 270 268 282 270 228 244 274 272 240 226 295 301 302 278 186 176 183 196 194 196 159 141 136 137 141 139 136 145 148 152 144
35 38 101 81 51 324 298 312 310 300 307 282 289 288 262 214 223 210 220 217 12 295 166 252 296 308 104 167 233 230 209 182 149 163 139 145 150 135 137 143 145 143 135 133
67 111 115 57 340 319 300 300 295 294 305 315 338 283 184 159 168 172 174 207 92 124 128 132 175 171 119 100 100 99 92 102 105 93 91 102 113 124 143 153 146 140 150 160
115 108 98 34 335 334 342 342 337 341 267 126 78 94 143 144 135 126 132 179 171 167 161 164 136 131 128 120 104 90 89 88 107 109 147 134 158 160 148 147 151 156 150 160
133 131 189 110 82 68 57 39 54 56 55 128 142 130 120 126 132 165 249 233 138 138 135 136 133 129 130 156 174 133 135 142 156 141 142 164 164 159 149 155 157 162 145 122
110 102 97 115 133 101 67 59 60 65 77 118 137 132 132 151 279 162 142 131 131 138 141 122 92 90 107 118 138 151 157 150 133 155 163 169 181 162 160 152 144 143 151 165
148 132 130 135 118 133 70 60 57 71 74 81 81 100 145 163 145 132 136 133 138 151 159 146 111 123 139 135 157 160 163 158 140 149 153 152 154 149 153 170 159 165 169 130
134 134 138 139 134 122 151 251 173 156 89 61 68 78 79 95 112 127 129 121 136 132 99 170 138 117 135 146 161 160 147 147 158 163 178 180 162 146 141 153 172 226 205 72
Wind_Speed_850mb
21 25 20 29 31 27 18 15 18 24 27 24 14 21 46 49 38 28 22 14 5 2 23 61 72 76 75 67 62 57 51 41 34 31 25 22 25 24 24 20 18 25 29 28
14 32 27 30 34 36 38 24 11 14 12 29 51 47 51 46 36 23 13 11 3 6 17 45 59 62 62 61 57 50 44 35 28 28 21 21 22 25 20 15 21 24 23 26
17 18 15 18 16 18 21 23 18 16 14 38 28 28 42 40 32 29 22 14 9 2 15 27 44 51 57 59 53 47 43 31 30 28 20 22 21 22 17 20 24 23 19 27
10 9 16 16 13 16 23 29 17 31 27 29 39 55 47 33 27 19 16 11 4 9 10 25 40 56 59 60 57 51 44 35 31 27 24 21 21 21 21 21 23 18 22 30
11 11 7 16 23 9 12 4 46 29 30 52 66 62 39 35 31 32 23 17 7 5 13 17 44 56 59 59 54 49 41 34 32 29 24 24 26 24 21 17 16 13 18 25
7 11 26 16 8 30 10 3 29 56 34 37 52 11 7 28 24 19 10 1 7 9 18 24 37 55 58 54 51 49 39 33 32 29 26 29 26 28 20 18 11 13 19 20
6 8 8 9 14 16 17 13 44 60 51 47 12 31 38 29 23 16 13 6 11 14 17 25 35 48 54 55 55 44 36 30 29 30 28 27 25 24 23 22 20 21 15 15
4 6 5 29 20 13 16 51 63 68 70 72 63 51 43 33 27 23 11 1 4 16 20 28 35 43 48 50 49 45 35 31 33 28 22 18 23 30 29 28 25 14 11 18
8 3 4 57 47 47 65 64 59 65 56 61 54 43 34 27 19 14 10 7 5 8 13 31 39 45 46 53 58 41 35 35 23 14 17 18 29 38 35 23 28 14 17 21
18 3 15 45 46 49 58 61 52 50 49 48 46 36 29 19 10 2 4 9 16 18 18 28 34 46 45 31 29 24 42 39 27 12 7 35 41 34 32 37 28 26 16 18
20 16 36 47 52 60 60 58 52 47 42 35 28 22 14 10 6 2 10 19 25 30 32 26 23 21 28 38 38 32 25 43 37 23 36 61 64 53 42 30 28 14 15 10
4 19 32 33 49 48 51 49 44 39 30 22 16 10 2 4 5 8 10 19 23 21 25 30 35 28 16 34 38 38 34 36 47 41 53 47 37 46 46 39 20 14 7 9
23 49 54 50 39 38 42 33 25 22 17 10 2 5 8 8 10 12 15 11 14 20 27 25 35 35 28 19 28 33 33 34 42 42 30 23 32 40 42 38 21 9 3 11
34 45 42 33 23 21 18 12 13 9 1 5 7 11 16 19 19 17 18 17 15 24 27 27 27 24 22 17 14 25 30 34 32 32 26 31 21 21 28 26 16 19 8 5
26 27 31 22 16 14 12 4 6 10 7 10 13 16 17 19 21 22 21 18 15 22 27 16 16 18 21 19 21 14 18 24 21 25 24 27 5 11 16 11 15 12 12 6
29 27 18 12 8 8 3 5 11 14 14 3 7 12 15 16 21 19 16 8 17 23 21 18 24 23 25 22 22 23 22 18 20 14 24 16 16 20 13 19 15 15 11 6
19 13 8 7 7 8 3 8 13 16 19 22 18 19 21 17 9 12 6 11 19 17 18 21 19 21 26 23 18 29 24 18 14 23 8 12 22 12 19 26 22 27 17 18
7 7 7 8 10 11 13 11 11 13 14 8 12 17 15 15 11 6 10 9 9 12 20 15 17 18 13 9 12 13 21 9 16 18 20 13 4 8 15 20 31 20 17 21
4 4 7 6 5 12 16 19 16 13 12 11 13 11 14 14 16 18 15 14 15 17 14 15 16 11 9 6 3 6 13 14 11 16 15 12 10 16 17 29 21 19 22 20
9 6 5 12 11 8 8 10 9 11 12 16 22 26 23 18 16 17 16 18 9 10 8 10 12 17 6 9 11 7 10 8 12 20 19 15 14 30 28 22 25 36 27 14
12 5 8 9 4 4 11 14 16 19 20 15 16 12 11 20 16 11 15 7 3 2 8 4 6 3 6 5 4 9 14 14 15 14 12 18 22 28 11 29 27 24 22 20
0 5 7 3 7 10 16 19 15 10 8 8 6 6 9 14 17 17 13 6 4 14 16 10 5 7 17 21 21 34 40 35 36 34 27 23 26 25 21 21 20 20 18 16
12 8 3 3 6 9 16 14 8 6 5 3 11 12 13 16 13 13 8 2 7 12 13 12 24 31 30 28 26 23 16 18 24 12 13 13 20 26 24 22 22 23 16 13
9 5 4 3 14 17 27 26 16 8 2 6 11 20 18 13 13 6 5 1 17 28 38 35 27 15 8 6 12 18 16 12 14 17 18 23 19 18 20 17 17 16 13 11
14 23 28 21 17 13 19 29 35 24 16 12 16 19 16 6 4 10 16 26 35 38 33 27 20 22 19 17 15 16 15 11 10 18 13 8 8 14 19 15 20 19 14 10
22 12 13 12 10 8 9 7 11 21 28 30 24 13 10 11 10 21 27 28 29 29 26 18 17 13 9 12 11 12 14 20 17 15 18 21 17 13 13 19 19 16 11 7
23 14 14 10 8 8 6 6 11 7 10 15 18 20 21 22 22 21 22 22 22 16 7 15 15 9 13 14 6 3 17 19 17 16 15 15 15 15 17 16 9 6 4 2
Wind_Direction_850mb
232 246 251 186 195 209 216 205 178 235 174 195 163 157 153 149 134 125 146 162 194 53 199 207 198 200 203 206 206 213 213 220 233 236 250 276 293 302 302 309 301 317 318 324
233 241 243 251 227 202 215 224 226 209 213 175 175 139 123 121 120 124 119 118 159 277 194 198 197 201 205 207 207 210 216 220 233 240 252 274 290 291 297 295 303 306 318 337
216 235 254 270 233 231 207 206 190 208 175 123 113 117 128 131 136 140 141 138 153 323 240 210 214 212 207 204 204 209 216 223 230 237 252 271 276 277 274 284 291 302 319 336
176 174 238 246 267 276 208 194 117 111 123 126 124 114 114 117 117 123 139 153 176 277 312 239 238 227 219 215 215 219 223 235 232 237 251 259 267 262 267 280 299 312 330 341
143 180 226 257 265 289 175 161 129 120 117 121 108 99 77 108 126 127 140 160 193 279 282 264 234 226 219 215 217 226 230 242 237 237 246 257 261 258 275 292 316 313 335 341
137 168 208 225 249 207 98 141 152 140 141 138 130 106 190 119 122 127 124 179 279 261 274 256 230 228 219 217 223 229 230 239 233 236 250 260 258 260 266 295 292 325 339 332
283 189 248 200 138 116 120 205 89 106 127 116 92 134 129 123 119 119 98 353 319 256 267 258 232 224 221 223 226 225 229 238 231 243 261 267 268 278 286 309 318 324 329 312
288 56 160 347 60 120 159 93 97 100 110 110 115 116 112 111 107 103 119 163 350 283 254 252 245 233 225 225 222 224 233 220 222 242 264 292 271 276 276 287 293 296 306 303
159 107 119 63 50 106 113 103 100 104 108 112 109 107 108 106 120 116 127 213 329 359 283 261 250 246 238 254 224 215 203 205 209 227 257 283 289 271 268 266 288 259 267 312
98 345 128 144 140 127 108 107 104 99 102 101 98 100 98 93 94 127 305 295 316 326 342 12 252 244 219 248 232 179 194 190 184 180 281 303 284 265 268 275 257 236 296 317
84 93 92 97 112 113 108 106 101 96 93 89 95 89 96 98 64 345 289 291 295 303 311 333 354 291 251 215 240 206 209 238 199 204 299 280 274 263 262 267 221 279 299 330
101 305 114 103 99 102 96 97 102 104 102 99 109 110 125 229 276 289 283 295 314 333 329 315 326 330 294 257 241 231 232 217 223 237 277 268 252 261 257 239 233 273 301 339
107 73 102 106 111 103 100 98 102 109 112 129 157 286 273 292 286 307 308 296 305 315 316 325 317 314 307 291 256 254 245 258 277 259 250 251 258 251 243 216 202 242 165 9
87 96 79 75 91 108 108 105 120 116 44 293 284 287 289 287 288 288 285 274 289 310 323 320 311 292 299 301 257 236 246 249 245 261 253 270 266 255 218 209 190 152 123 353
107 111 111 109 107 96 99 88 273 289 300 316 318 309 298 284 274 274 270 266 312 329 322 301 302 298 287 283 274 261 233 225 240 242 248 256 224 171 186 182 149 198 212 309
118 110 104 119 146 133 110 301 299 296 299 325 321 324 316 312 283 267 230 265 328 316 290 299 307 296 275 280 264 249 255 244 248 217 238 223 209 208 202 209 209 182 159 124
105 116 125 123 52 89 32 324 332 326 316 301 315 315 302 302 323 188 288 331 329 288 303 297 280 278 282 288 284 274 253 243 244 249 239 245 230 220 198 195 195 161 149 141
94 90 59 38 20 4 354 331 318 328 342 304 296 283 301 295 312 299 309 314 283 281 296 282 288 301 308 329 346 338 193 251 211 218 222 201 173 221 233 185 170 154 144 143
50 36 13 322 11 5 349 347 325 316 343 311 259 254 289 288 281 275 263 256 270 266 269 281 299 289 285 267 101 133 162 200 206 206 189 191 191 196 188 148 164 182 174 144
327 68 46 15 23 19 349 340 308 303 286 289 289 270 268 282 270 228 244 274 272 240 226 295 301 302 278 186 176 183 196 194 196 159 141 136 137 141 139 136 145 148 152 144
35 38 101 81 51 324 298 312 310 300 307 282 289 288 262 214 223 210 220 217 12 295 166 252 296 308 104 167 233 230 209 182 149 163 139 145 150 135 137 143 145 143 135 133
67 111 115 57 340 319 300 300 295 294 305 315 338 283 184 159 168 172 174 207 92 124 128 132 175 171 119 100 100 99 92 102 105 93 91 102 113 124 143 153 146 140 150 160
115 108 98 34 335 334 342 342 337 341 267 126 78 94 143 144 135 126 132 179 171 167 161 164 136 131 128 120 104 90 89 88 107 109 147 134 158 160 148 147 151 156 150 160
133 131 189 110 82 68 57 39 54 56 55 128 142 130 120 126 132 165 249 233 138 138 135 136 133 129 130 156 174 133 135 142 156 141 142 164 164 159 149 155 157 162 145 122
110 102 97 115 133 101 67 59 60 65 77 118 137 132 132 151 279 162 142 131 131 138 141 122 92 90 107 118 138 151 157 150 133 155 163 169 181 162 160 152 144 143 151 165
148 132 130 135 118 133 70 60 57 71 74 81 81 100 145 163 145 132 136 133 138 151 159 146 111 123 139 135 157 160 163 158 140 149 153 152 154 149 153 170 159 165 169 130
134 134 138 139 134 122 151 251 173 156 89 61 68 78 79 95 112 127 129 121 136 132 99 170 138 117 135 146 161 160 147 147 158 163 178 180 162 146 141 153 172 226 205 72